sat.trackr.live / text

‹ back to catalog

STARLINK-36942

NORAD 68030 · 2026-040R

PAYLOAD ACTIVE UNKNOWN

§ Identity

Operator
Country
US
Launch date
2026-03-01
Launch site
AFWTR
Launch vehicle
Mass (kg)
RCS (m²)

Purposes: comms

External: N2YO · Heavens-Above · Gunter

§ Orbital elements

Epoch: 2026-09-19T02:25:31.015488Z

Period
93.90 min
Inclination
97.2835°
Eccentricity
0.0001211
Mean motion
15.33493698 rev/d
Perigee alt
464.6 km
Apogee alt
466.2 km
Semi-major
6,843.5 km
B*
1.1219e-3
RAAN
209.4622°
Arg perigee
108.4998°
Mean anomaly
251.6377°
Rev number
3,110

§ Raw data

STARLINK-369421 68030U 26040R   26262.10105342  .00036375  00000+0  11219-2 0  99922 68030  97.2835 209.4622 0001211 108.4998 251.6377 15.33493698 31109

JSON: /api/v1/satellites/68030 · /tle

For live sub-satellite position, see the globe view (requires WebGL).

§ Visibility from observer

Set your observer location to see the next 7 days of passes ≥ 10°. The values pass through the URL so the page stays shareable.

No JS? Fill the form by hand. The geolocation button needs JavaScript.